TimeEST,TemperatureF,Dew PointF,Humidity,Sea Level PressureIn,VisibilityMPH,Wind Direction,Wind SpeedMPH,Gust SpeedMPH,PrecipitationIn,Events,Conditions,WindDirDegrees,DateUTC
12:12 AM,7.0,1.0,77,29.96,2.0,WNW,19.6,31.1,0.00,Rain-Snow,Freezing Rain,300,2014-01-06 05:12:00
12:28 AM,7.0,1.0,77,29.98,3.0,WNW,15.0,25.3,0.00,Rain-Snow,Freezing Rain,300,2014-01-06 05:28:00
12:44 AM,6.1,-0.9,73,29.99,2.5,WNW,20.7,33.4,0.00,Rain-Snow,Freezing Rain,300,2014-01-06 05:44:00
12:53 AM,6.1,-0.0,76,30.04,3.0,WNW,17.3,26.5,0.00,Rain-Snow,Freezing Rain,300,2014-01-06 05:53:00
1:04 AM,5.0,-0.9,76,30.00,4.0,WNW,16.1,29.9,0.00,Rain-Snow,Freezing Rain,300,2014-01-06 06:04:00
1:38 AM,3.9,-2.0,76,30.04,2.0,WNW,20.7,29.9,0.00,Rain-Snow,Freezing Rain,290,2014-01-06 06:38:00
1:53 AM,3.0,-4.0,73,30.09,3.0,WNW,12.7,27.6,0.00,Rain-Snow,Freezing Rain,300,2014-01-06 06:53:00
2:53 AM,1.0,-6.0,72,30.15,4.0,WNW,15.0,25.3,0.00,Rain-Snow,Freezing Rain,300,2014-01-06 07:53:00
3:14 AM,-0.0,-7.1,72,30.12,2.0,WNW,11.5,19.6,0.00,Rain-Snow,Freezing Rain,300,2014-01-06 08:14:00
3:23 AM,-0.0,-7.1,72,30.13,3.0,WNW,11.5,18.4,0.00,Rain-Snow,Freezing Rain,300,2014-01-06 08:23:00
3:53 AM,-2.0,-9.9,69,30.18,9.0,WNW,13.8,29.9,0.00,Rain-Snow,Freezing Rain,300,2014-01-06 08:53:00
4:49 AM,-2.2,-9.4,71,30.17,2.0,West,18.4,24.2,0.00,Rain-Snow,Freezing Rain,280,2014-01-06 09:49:00
4:53 AM,-4.0,-11.9,69,30.22,2.5,WNW,19.6,32.2,0.00,Rain-Snow,Freezing Rain,300,2014-01-06 09:53:00
5:00 AM,-5.1,-13.0,69,30.18,6.0,WNW,11.5,29.9,0.00,Rain-Snow,Freezing Rain,300,2014-01-06 10:00:00
5:53 AM,-5.1,-13.0,69,30.24,4.0,WNW,9.2,-,0.00,Rain-Snow,Freezing Rain,290,2014-01-06 10:53:00
6:21 AM,-6.0,-13.0,72,30.21,1.8,WNW,9.2,20.7,0.00,Rain-Snow,Freezing Rain,290,2014-01-06 11:21:00
6:32 AM,-6.0,-14.1,68,30.21,3.0,WNW,13.8,20.7,0.00,Rain-Snow,Freezing Rain,300,2014-01-06 11:32:00
6:53 AM,-8.0,-16.1,68,30.28,4.0,WNW,16.1,28.8,0.00,Rain-Snow,Freezing Rain,290,2014-01-06 11:53:00
7:13 AM,-8.0,-16.1,68,30.24,1.8,WNW,15.0,21.9,0.00,Rain-Snow,Freezing Rain,290,2014-01-06 12:13:00
7:42 AM,-9.0,-16.1,71,30.25,2.5,WNW,12.7,26.5,0.00,Rain-Snow,Freezing Rain,300,2014-01-06 12:42:00
7:50 AM,-9.4,-18.4,65,30.25,5.0,WNW,15.0,25.3,0.00,Rain-Snow,Freezing Rain,300,2014-01-06 12:50:00
7:53 AM,-9.9,-18.0,68,30.30,5.0,WNW,19.6,26.5,0.00,Rain-Snow,Freezing Rain,290,2014-01-06 12:53:00
8:28 AM,-9.9,-18.0,68,30.27,2.5,WNW,13.8,24.2,0.00,Rain-Snow,Freezing Rain,290,2014-01-06 13:28:00
8:48 AM,-9.4,-18.4,65,30.28,6.0,West,16.1,25.3,0.00,Rain-Snow,Freezing Rain,280,2014-01-06 13:48:00
8:53 AM,-11.0,-18.9,68,30.34,5.0,WNW,15.0,25.3,0.00,Rain-Snow,Freezing Rain,290,2014-01-06 13:53:00
9:53 AM,-9.9,-18.9,65,30.38,2.5,WNW,16.1,27.6,0.00,Rain-Snow,Freezing Rain,290,2014-01-06 14:53:00
10:06 AM,-9.9,-18.9,65,30.31,3.0,WNW,15.0,26.5,0.00,Rain-Snow,Freezing Rain,290,2014-01-06 15:06:00
10:53 AM,-9.0,-18.0,65,30.38,8.0,WNW,17.3,21.9,0.00,Rain-Snow,Freezing Rain,290,2014-01-06 15:53:00
11:35 AM,-9.0,-18.0,65,30.31,2.0,West,15.0,24.2,0.00,Rain-Snow,Freezing Rain,270,2014-01-06 16:35:00
11:51 AM,-7.6,-16.6,65,30.30,3.0,West,17.3,24.2,0.00,Rain-Snow,Freezing Rain,280,2014-01-06 16:51:00
11:53 AM,-8.0,-17.0,65,30.37,3.0,West,17.3,24.2,0.00,Rain-Snow,Freezing Rain,280,2014-01-06 16:53:00
12:29 PM,-8.0,-17.0,65,30.29,2.0,WNW,12.7,24.2,0.00,Rain-Snow,Freezing Rain,290,2014-01-06 17:29:00
12:38 PM,-8.0,-17.0,65,30.29,1.5,West,12.7,25.3,0.00,Snow,Light Snow,280,2014-01-06 17:38:00
12:53 PM,-8.0,-16.1,68,30.35,1.0,West,10.4,-,0.00,Snow,Light Snow,280,2014-01-06 17:53:00
1:05 PM,-8.0,-15.0,71,30.29,0.8,West,16.1,21.9,0.00,Snow,Light Snow,270,2014-01-06 18:05:00
1:26 PM,-7.1,-14.1,72,30.29,0.5,West,13.8,-,0.00,Snow,Snow,270,2014-01-06 18:26:00
1:37 PM,-8.0,-16.1,68,30.29,1.0,West,12.7,-,0.00,Snow,Light Snow,280,2014-01-06 18:37:00
1:47 PM,-7.6,-16.6,65,30.29,3.0,West,16.1,21.9,0.00,,Overcast,260,2014-01-06 18:47:00
1:53 PM,-7.1,-16.1,65,30.36,6.0,West,12.7,21.9,0.00,,Overcast,260,2014-01-06 18:53:00
2:04 PM,-8.0,-17.0,65,30.29,1.5,West,12.7,28.8,0.00,Snow,Light Snow,270,2014-01-06 19:04:00
2:15 PM,-8.0,-17.0,65,30.29,0.8,WNW,16.1,25.3,0.00,Snow,Light Snow,290,2014-01-06 19:15:00
2:25 PM,-8.0,-17.0,65,30.30,1.2,WNW,16.1,25.3,0.00,Snow,Light Snow,290,2014-01-06 19:25:00
2:53 PM,-8.0,-17.0,65,30.37,1.5,West,16.1,24.2,0.00,,Overcast,260,2014-01-06 19:53:00
3:01 PM,-8.0,-17.0,65,30.31,3.0,West,13.8,25.3,0.00,,Overcast,270,2014-01-06 20:01:00
3:08 PM,-7.1,-16.1,65,30.31,2.0,West,12.7,23.0,0.00,Snow,Light Snow,270,2014-01-06 20:08:00
3:27 PM,-8.0,-17.0,65,30.32,1.5,West,15.0,23.0,0.00,Snow,Light Snow,260,2014-01-06 20:27:00
3:53 PM,-8.0,-17.0,65,30.40,1.2,WNW,17.3,23.0,0.00,Snow,Light Snow,290,2014-01-06 20:53:00
4:22 PM,-8.0,-18.0,61,30.34,2.5,West,17.3,26.5,0.00,,Haze,280,2014-01-06 21:22:00
4:36 PM,-8.0,-17.0,65,30.34,1.2,West,10.4,-,0.00,Snow,Light Snow,270,2014-01-06 21:36:00
4:53 PM,-8.0,-17.0,65,30.42,2.5,West,11.5,19.6,0.00,,Haze,260,2014-01-06 21:53:00
5:01 PM,-8.0,-17.0,65,30.35,3.0,West,15.0,21.9,N/A,,Haze,270,2014-01-06 22:01:00
5:05 PM,-8.0,-17.0,65,30.35,1.8,West,13.8,-,0.00,Snow,Light Snow,260,2014-01-06 22:05:00
5:20 PM,-8.0,-17.0,65,30.35,3.0,West,8.1,21.9,0.00,Snow,Light Snow,270,2014-01-06 22:20:00
5:53 PM,-9.0,-18.0,65,30.44,9.0,West,10.4,19.6,0.00,,Scattered Clouds,270,2014-01-06 22:53:00
6:53 PM,-9.9,-17.0,71,30.46,10.0,West,8.1,-,N/A,,Clear,270,2014-01-06 23:53:00
7:53 PM,-9.0,-16.1,71,30.46,10.0,WSW,9.2,-,N/A,,Clear,250,2014-01-07 00:53:00
8:53 PM,-9.0,-17.0,68,30.48,10.0,WSW,6.9,-,N/A,,Clear,250,2014-01-07 01:53:00
9:53 PM,-9.0,-17.0,68,30.48,10.0,West,9.2,-,N/A,,Clear,260,2014-01-07 02:53:00
10:53 PM,-9.0,-17.0,68,30.48,10.0,WSW,9.2,-,N/A,,Clear,250,2014-01-07 03:53:00
11:53 PM,-8.0,-17.0,65,30.48,10.0,West,10.4,-,N/A,,Clear,260,2014-01-07 04:53:00